Ottumwa, IA

2:42 PM CDT on May 26, 2018 (GMT -0500)
Ottumwa Industrial

Weather History for KOTM - October, 2011

Change the Weather History Date:

Tuesday, October 18, 2011

  Actual Average Record
Temperature  
Mean Temperature 47 °F 52 °F  
Max Temperature 51 °F 63 °F 87 °F (1950)
Min Temperature 42 °F 41 °F 21 °F (1948)
Degree Days  
Heating Degree Days 18 14  
Month to date heating degree days 124 195  
Since 1 July heating degree days 292 316  
Moisture  
Dew Point 35 °F    
Average Humidity 70    
Maximum Humidity 83    
Minimum Humidity 56    
Precipitation  
Precipitation T in 0.10 in 2.25 in (1984)
Month to date precipitation 1.06 1.66  
Year to date precipitation 27.63 32.15  
Sea Level Pressure  
Sea Level Pressure 29.94 in    
Wind  
Wind Speed 14 mph (NW)    
Max Wind Speed 24 mph    
Max Gust Speed 30 mph    
Visibility 10 miles    
Events      
T = Trace of Precipitation, MM = Missing Value Source: NWS Daily Summary

Daily Weather History Graph

Daily Weather History Graph

Search for Another Location

Airport or City:

Astronomy

Oct. 18, 2011 Rise Set
Actual Time 7:24 AM CDT 6:24 PM CDT
Civil Twilight 6:56 AM CDT 6:52 PM CDT
Nautical Twilight 6:24 AM CDT 7:24 PM CDT
Astronomical Twilight 5:52 AM CDT 7:56 PM CDT
Moon 11:04 PM CDT (10/18) 1:17 PM CDT (10/18)
Length of Visible Light 11h 56m
Length of Day
11h 00m
Waning Gibbous, 64% of the Moon is Illuminated
Oct 18
Waning Gibbous
Oct 19
Last Quarter
Oct 26
New
Nov 2
First Quarter
Nov 10
Full

Hourly Weather History & Observations

Time (CDT) Temp. Windchill Dew Point Humidity Pressure Visibility Wind Dir Wind Speed Gust Speed Precip Events Conditions
12:53 AM 46.0 °F 41.9 °F 39.0 °F 76% 29.92 in 10.0 mi West 8.1 mph - N/A   Clear
1:53 AM 45.0 °F 41.2 °F 39.0 °F 80% 29.91 in 10.0 mi West 6.9 mph - N/A   Clear
2:53 AM 45.0 °F 40.6 °F 37.9 °F 76% 29.90 in 10.0 mi WNW 8.1 mph - N/A   Partly Cloudy
3:53 AM 46.4 °F 41.5 °F 35.6 °F 66% 29.88 in 10.0 mi NW 10.4 mph - N/A   Clear
4:53 AM 46.9 °F - 35.1 °F 63% 29.89 in 10.0 mi NW 11.5 mph - N/A   Clear
5:53 AM 44.1 °F 39.0 °F 34.0 °F 68% 29.90 in 10.0 mi NW 9.2 mph - N/A   Clear
6:53 AM 44.1 °F 39.5 °F 33.1 °F 65% 29.91 in 10.0 mi NW 8.1 mph - N/A   Clear
7:53 AM 44.1 °F 38.6 °F 33.1 °F 65% 29.92 in 10.0 mi NW 10.4 mph - N/A   Clear
8:53 AM 44.1 °F 37.4 °F 34.0 °F 68% 29.94 in 10.0 mi NNW 13.8 mph - N/A   Clear
9:53 AM 46.4 °F 39.8 °F 33.8 °F 62% 29.93 in 10.0 mi NNW 16.1 mph - N/A   Clear
10:53 AM 46.0 °F 39.0 °F 33.1 °F 61% 29.94 in 10.0 mi NW 17.3 mph 24.2 mph N/A   Clear
11:53 AM 46.9 °F - 33.1 °F 59% 29.94 in 10.0 mi NNW 19.6 mph - N/A   Clear
12:53 PM 48.0 °F - 34.0 °F 58% 29.93 in 10.0 mi NNW 19.6 mph 24.2 mph N/A   Clear
1:53 PM 48.9 °F - 35.1 °F 59% 29.92 in 10.0 mi North 15.0 mph - N/A   Mostly Cloudy
2:53 PM 48.0 °F - 34.0 °F 58% 29.93 in 10.0 mi NNW 20.7 mph 26.5 mph N/A   Overcast
3:53 PM 46.0 °F 38.5 °F 35.1 °F 66% 29.96 in 10.0 mi NNW 19.6 mph - N/A   Overcast
4:53 PM 45.0 °F 37.1 °F 35.1 °F 68% 29.96 in 10.0 mi NNW 19.6 mph - N/A   Overcast
5:53 PM 45.0 °F 38.2 °F 35.1 °F 68% 29.97 in 10.0 mi NNW 15.0 mph - N/A   Overcast
6:53 PM 45.0 °F 38.9 °F 34.0 °F 65% 29.98 in 10.0 mi NNW 12.7 mph - N/A   Overcast
7:53 PM 44.6 °F 37.4 °F 33.8 °F 66% 29.97 in 10.0 mi NNW 16.1 mph - N/A   Overcast
8:53 PM 44.1 °F 37.7 °F 34.0 °F 68% 29.98 in 10.0 mi NNW 12.7 mph - N/A   Overcast
9:48 PM 42.8 °F 35.4 °F 33.8 °F 70% 29.96 in 10.0 mi NNW 15.0 mph - N/A   Overcast
9:53 PM 43.0 °F 35.4 °F 33.1 °F 68% 29.97 in 10.0 mi NNW 16.1 mph - N/A   Overcast
10:09 PM 42.8 °F 35.1 °F 33.8 °F 70% 29.96 in 10.0 mi NNW 16.1 mph - N/A   Overcast
10:53 PM 43.0 °F 35.7 °F 33.1 °F 68% 29.96 in 10.0 mi NNW 15.0 mph - N/A   Overcast
11:53 PM 43.0 °F 35.1 °F 33.1 °F 68% 29.94 in 10.0 mi NNW 17.3 mph - N/A   Overcast